Location: Klein M�hlingen
(51.9472°N, 11.7453°E)
Time: 18:15:10
(UTC+00:00)

NOSS 2-1 (D) - Pass Details

Date: 09 April 2020
Orbit: 450 x 1753 km, 63.3° (Epoch: 22 April)

Event Time Altitude Azimuth Distance (km) Brightness Sun altitude
Rises 22:35:07 0° 313° (NW) 2,967 7.8 -29.4°
Reaches altitude 10° 22:37:07 10° 312° (NW) 2,187 7.0 -29.5°
Enters shadow 22:41:10 61° 290° (WNW) 959 4.5 -29.6°
